Location: West Sayville
(40.7279°N, 73.0976°W)
Time: 04:44:59
(UTC+00:00)

Cosmos 2278 - Pass Details

Date: 29 October 2020
Orbit: 841 x 851 km, 71.1° (Epoch: 29 November)

Event Time Altitude Azimuth Distance (km) Brightness Sun altitude
Rises 23:06:24 0° 183° (S) 3,396 7.0 -14.7°
Reaches altitude 10° 23:08:56 10° 177° (S) 2,463 6.2 -15.2°
Maximum altitude 23:14:16 44° 106° (ESE) 1,154 4.0 -16.2°
Enters shadow 23:18:37 15° 40° (NE) 2,120 5.4 -17.0°
